Regional Weather Roundup
Issued by NWS

Home | Current Version | Previous Version | Text Only | Print | Product List | Glossary Off
Versions: 1 2 3 4 5 6 7 8 9 10 11 12 13 14 15 16 17 18 19 20 21 22 23 24 25 26 27 28 29 30 31 32 33 34 35 36 37 38 39 40 41 42 43 44 45 46 47 48 49 50

000
ASUS45 KCYS 200910
RWRWY

WYOMING REGIONAL WEATHER ROUNDUP
NATIONAL WEATHER SERVICE CHEYENNE WY
200 AM MST SAT JAN 20 2018

NOTE:  "FAIR" INDICATES FEW OR NO CLOUDS BELOW 12,000 FEET
WITH NO SIGNIFICANT WEATHER AND/OR OBSTRUCTIONS TO VISIBILITY.

WYZ001-201000-
YELLOWSTONE NATIONAL PARK

CITY           SKY/WX    TMP DP  RH WIND       PRES   REMARKS
LK YELLOWSTONE   N/A     18  16  92 CALM      29.82S
W YELLOWSTONE  NOT AVBL

$$
WYZ002>013-054>058-071-098>099-201000-
NORTHERN WYOMING

CITY           SKY/WX    TMP DP  RH WIND       PRES   REMARKS
JACKSON        CLOUDY    24  18  77 S9        29.84R WCI  14
CODY           MOCLDY    29  26  89 S3        29.84S
GREYBULL       CLOUDY    33  27  78 NW9       29.82R WCI  25
WORLAND        CLOUDY    30  29  96 SW6       29.83R WCI  24
SHERIDAN       FLURRIES  31  30  96 SW6       29.86R WCI  25
BUFFALO        LGT SNOW  30  26  85 N15       29.82S FOG     WCI  19
GILLETTE       LGT SNOW  31  30  96 N12       29.82R FOG     WCI  22
HULETT         LGT SNOW  32  32 100 MISG      29.82R
NEWCASTLE      CLOUDY    32  32 100 N3        29.79R

$$
WYZ014>020-022>026-101>103-201000-
CENTRAL WYOMING

CITY           SKY/WX    TMP DP  RH WIND       PRES   REMARKS
BIG PINEY      CLOUDY    23  16  74 W7        29.84S WCI  15
PINEDALE       CLOUDY    23  18  80 NW6       29.84R WCI  16
DUBOIS         CLOUDY    27  10  50 NW7       29.77S WCI  19
LANDER         CLOUDY    34  20  56 CALM      29.78R
RIVERTON       CLOUDY    31  26  82 N8        29.79R WCI  23
CASPER         CLOUDY    32  32 100 NE5       29.79R WCI  27
DOUGLAS        FAIR      27  27 100 NW6       29.79R WCI  20

$$
WYZ021-027>030-104>119-201000-
SOUTHERN WYOMING

CITY           SKY/WX    TMP DP  RH WIND       PRES   REMARKS
EVANSTON       CLOUDY    22  21  96 NE6       29.84F FOG     WCI  14
FORT BRIDGER   LGT SNOW  25  25 100 W5        29.88F WCI  19
ROCK SPRINGS   CLOUDY    24  21  88 W10       29.84F WCI  14
DIXON            N/A     32  24  71 N3        29.85S
RAWLINS        FAIR      30  24  78 W20       29.80R WCI  17
SARATOGA       FAIR      34  23  64 CALM      29.80R
LARAMIE        FAIR      22  15  75 S10       29.77F WCI  11
CHEYENNE       FAIR      31  17  56 W5        29.77R WCI  26
TORRINGTON     FAIR      29  27  92 S7        29.75R WCI  22

$$



USA.gov is the U.S. government's official web portal to all federal, state and local government web resources and services.